Etusivu
METAR-TAF:

METAR-TAF

Lentoasemat :

Flying Cloud Airport

Minneapolis / Eden Prairie, Minnesota, Yhdysvallat

Leveyspiiri: 44-49-56N, Pituuspiiri: 093-28-13W, korkeus merenpinnasta: 287 m

Tämänhetkinen sää

Tämä raportti tehtiin 44 minuuttia sitten, kello 08.53 UTC
Tuuli 9 kn etelästä
Lämpötila -6°C
Kosteus 58%
Ilmanpaine 1014 hPa
Näkyvyys: 16.1 km
Hajonneita pilviä 12000 ft:n korkeudessa

METAR: KFCM 130853Z AUTO 17009KT 10SM BKN120 M06/M13 A2993 RMK AO2 SLP150 T10611128 56024

Aika: 03:37 (09:37 UTC)


TAF: puuttuu

Säähavainnot ja -ennusteet yli 4000 lentoasemalta (METAR- ja TAF-raportit).

Käytössä olevat sääasemat on merkitty karttaan keltaisilla ja punaisilla pisteillä.

Aseta hiiri pisteen päälle nähdäksesi sääaseman nimen.

Klikkaa sitten nähdäksesi säähavainnot ja -ennusteet.

Kartan vaihtaminen: klikkaa mustalla rastilla varustettuja vihreitä pisteitä, niin voit zoomata sisään; viivalla varustettua vihreää pistettä, niin voit zoomata ulos tai vihreitä nuolia, niin pääset viereisille kartoille.


METAR-TAF: